This is the latest recevied weather packets stored in our database for station/object KE8GJZ-1. If no packets are shown the sender has not sent any weather packets the latest 10 day(s).
| Time | Temp. | Humidity | Pressure | Rain* | Wind** | Luminosity | Snow |
|---|---|---|---|---|---|---|---|
| 1778093787 | 12.22° C | 43% | 1011.3 hPa | 0 mm | - | 333 W/m² | - |
| 1778093483 | 12.22° C | 46% | 1011 hPa | 0 mm | - | 233 W/m² | - |
| 1778093181 | 11.67° C | 43% | 1010.9 hPa | 0 mm | - | 207 W/m² | - |
| 1778092878 | 12.22° C | 43% | 1010.9 hPa | 0 mm | - | 188 W/m² | - |
| 1778092574 | 12.22° C | 42% | 1010.9 hPa | 0 mm | - | 233 W/m² | - |
| 1778092270 | 12.22° C | 45% | 1011 hPa | 0 mm | - | 253 W/m² | - |
| 1778091968 | 12.22° C | 47% | 1010.5 hPa | 0 mm | - | 288 W/m² | - |
| 1778091665 | 11.67° C | 42% | 1010.8 hPa | 0 mm | - | 236 W/m² | - |
| 1778091363 | 11.67° C | 41% | 1010.7 hPa | 0 mm | - | 195 W/m² | - |
| 1778091060 | 12.22° C | 41% | 1010.8 hPa | 0 mm | - | 202 W/m² | - |
| 1778090756 | 12.22° C | 45% | 1010.8 hPa | 0 mm | - | 237 W/m² | - |
| 1778090453 | 12.78° C | 46% | 1011 hPa | 0 mm | - | 149 W/m² | - |
| 1778090149 | 12.22° C | 43% | 1010.8 hPa | 0 mm | - | 385 W/m² | - |
| 1778089845 | 12.78° C | 46% | 1010.7 hPa | 0 mm | - | 490 W/m² | - |
| 1778089545 | 11.67° C | 50% | 1010.9 hPa | 0 mm | - | 800 W/m² | - |
| 1778089240 | 12.22° C | 45% | 1010.8 hPa | 0 mm | - | 306 W/m² | - |
| 1778088938 | 11.67° C | 50% | 1011.2 hPa | 0 mm | - | 586 W/m² | - |
| 1778088635 | 11.11° C | 48% | 1011.3 hPa | 0 mm | - | 436 W/m² | - |
| 1778088332 | 11.11° C | 48% | 1011.3 hPa | 0 mm | - | 292 W/m² | - |
| 1778088028 | 10.56° C | 50% | 1011.3 hPa | 0 mm | - | 201 W/m² | - |
| 1778087725 | 10.56° C | 49% | 1011.7 hPa | 0 mm | - | 273 W/m² | - |
| 1778087423 | 11.11° C | 50% | 1011.4 hPa | 0 mm | - | 236 W/m² | - |
| 1778087120 | 11.11° C | 47% | 1011.3 hPa | 0 mm | - | 232 W/m² | - |
| 1778086812 | 11.11° C | 49% | 1011 hPa | 0 mm | - | 192 W/m² | - |
| 1778086511 | 11.67° C | 49% | 1011.4 hPa | 0 mm | - | 134 W/m² | - |
* Rain latest hour (hover to see other rain measurements)
** Current wind speed in m/s (hover to see current wind gust speed)